NOAA 16 DEB, 41283

Orbit data source: Space-Track

NOAA 16 DEB, 41283 is space debris in SSO originally from a launch on Thu, 21 Sep 2000 UTC launched from the Air Force Western Test Range (AFWTR). Debris objects in space refer to the collection of defunct objects orbiting the Earth. Examples of debris include non-operational satellites, rocket bodies, and fragments generated from explosions, collisions, or faulty payload assembly.

Loading next visibility...
Identifier
41283, 2000-055GK
Orbit
SSO
Country
Flag of USUS
Related business
Manufacturer
Unknown
Mission
Spacecraft
Bus & Motor
Unknown
Mass
Unknown
Launch date (UTC)
2000-09-21 (25 years ago)
Launch vehicle
Unknown
Launch site
Air Force Western Test Range (AFWTR)
Object type
Payload
Rocket body
Debris
Shape & HBR
Unknown shape, 0.1 m
Radar Cross Section
Small (<0.1 m²)

Expand to show TLE details & history
Last TLE update: 22 hours ago

TLE from 22 hours ago
0 NOAA 16 DEB
1 41283U 00055GK  25340.39575548  .00004162  00000-0  24169-2 0  9995
2 41283  98.8310 317.9348 0059077 182.6094 177.4776 14.08362899509498
Epoch: 2025-12-06T09:29Z
TLE epoch observation values (Epoch: 2025-12-06T09:29:53.273Z)
Latitude
-0.00001°
Longitude
100.03873°
Altitude
910.632 km
Speed
7.375 km/s
True Right ascension
21h 11m 44s
True Declination
0° 00' 00"
Sunlit
Object was in daylight at epoch
Visualization orbit readout
Latitude
Unknown
Longitude
Unknown
Altitude
Unknown
Speed
Unknown
Apparent Right ascension
Unknown
Apparent Declination
Unknown
Sunlit
N/A
Visualization observer readout
Local Sidereal Time
05:26:46
Azimuth
Unknown
Elevation
Unknown
Doppler factor
Unknown
Orbital elements
Apogee altitude
904.933 km
Perigee altitude
819.386 km
Semi-major axis
7,240.296 km
Eccentricity
0.00591
Inclination
98.831°
RAAN
317.9348°
Arg. of periapsis
182.6094°
True anomaly
177.50718°
Mean anomaly
177.4776°
Eccentric anomaly
177.49241°
Mean motion
3.52297 °/min
Orbital period
102.19 mins
BSTAR
0.0024169
Loading maneuver chart data...
Computing Atmospheric mass density...
Loading historical data...
Loading historical data...
Loading historical data...
Loading historical data...
Loading historical data...
Loading historical data...
Loading historical data...

Documentation

Showing up to 5 results
|